| Back to River Map | <<< Previous Forecast Point | | | Next Forecast Point >>> | Printer Version | Graph Version |  |
|
SALINAS RIVER - BRADLEY (BRDC1)
| Latitude: 35.93º N | Longitude: 120.87º W | Elevation: 443 Feet | | Forecast Type: Official Location |
| Location: Monterey County in California | Bulletin Group: Central Coast | River Group: Salinas/Pajaro |
| Issuance Time: | Sep 02 2026 at 7:35 AM PDT | Next Issuance: | Sep 03 2026 at 9:00 AM PDT
| |
| Action: 12.0 Feet | Minor Flood: 14.0 Feet | Moderate Flood: 20.0 Feet | Major Flood: 22.0 Feet |
# Tabular Observed and Forecast Hydrograph Information
#
# Location: Salinas River - Bradley (BRDC1)
#
# File Generation Time: 09/02/2026 at 07:36 AM PDT
# Data Interval: 1 Hour
#
# Most Recent Date & Time of Maximum Observed: 08/29/2026 at 01:00 PM PDT
# Maximum Observed Stage: 4.09 Feet
# Maximum Observed Flow: 527 cfs
#
# Earliest Date & Time of Maximum Forecast: 09/02/2026 at 08:00 AM PDT
# Maximum Forecast Stage: 3.98 Feet
# Maximum Forecast Flow: 476 cfs
#
# OBSERVED
#
# Date & Time (Local) Stage (Feet) Flow (cfs) Trend Observed Status
# ---------------------------------------------------------------------------------
08/28/2026 07 AM PDT 4.08 521 Normal
08/28/2026 08 AM PDT 4.09 527 + Normal
08/28/2026 09 AM PDT 4.09 527 0 Normal
08/28/2026 10 AM PDT 4.09 527 0 Normal
08/28/2026 11 AM PDT 4.08 521 - Normal
08/28/2026 12 PM PDT 4.09 527 + Normal
08/28/2026 01 PM PDT 4.08 521 - Normal
08/28/2026 02 PM PDT 4.09 527 + Normal
08/28/2026 03 PM PDT 4.08 521 - Normal
08/28/2026 04 PM PDT 4.07 514 - Normal
08/28/2026 05 PM PDT 4.07 514 0 Normal
08/28/2026 06 PM PDT 4.07 514 0 Normal
08/28/2026 07 PM PDT 4.06 508 - Normal
08/28/2026 08 PM PDT 4.06 508 0 Normal
08/28/2026 09 PM PDT 4.07 514 + Normal
08/28/2026 10 PM PDT 4.07 514 0 Normal
08/28/2026 11 PM PDT 4.07 514 0 Normal
08/29/2026 12 AM PDT 4.07 514 0 Normal
08/29/2026 01 AM PDT 4.06 508 - Normal
08/29/2026 02 AM PDT 4.06 508 0 Normal
08/29/2026 03 AM PDT 4.07 514 + Normal
08/29/2026 04 AM PDT 4.07 514 0 Normal
08/29/2026 05 AM PDT 4.07 514 0 Normal
08/29/2026 06 AM PDT 4.08 521 + Normal
08/29/2026 07 AM PDT 4.07 514 - Normal
08/29/2026 08 AM PDT 4.07 514 0 Normal
08/29/2026 09 AM PDT 4.08 521 + Normal
08/29/2026 10 AM PDT 4.07 514 - Normal
08/29/2026 11 AM PDT 4.08 521 + Normal
08/29/2026 12 PM PDT 4.09 527 + Normal
08/29/2026 01 PM PDT 4.09 527 0 Normal
08/29/2026 02 PM PDT 4.07 514 - Normal
08/29/2026 03 PM PDT 4.08 521 + Normal
08/29/2026 04 PM PDT 4.07 514 - Normal
08/29/2026 05 PM PDT 4.06 508 - Normal
08/29/2026 06 PM PDT 4.06 508 0 Normal
08/29/2026 07 PM PDT 4.06 508 0 Normal
08/29/2026 08 PM PDT 4.05 501 - Normal
08/29/2026 09 PM PDT 4.05 501 0 Normal
08/29/2026 10 PM PDT 4.04 498 - Normal
08/29/2026 11 PM PDT 4.05 501 + Normal
08/30/2026 12 AM PDT 4.05 501 0 Normal
08/30/2026 01 AM PDT 4.05 501 0 Normal
08/30/2026 02 AM PDT 4.05 501 0 Normal
08/30/2026 03 AM PDT 4.06 508 + Normal
08/30/2026 04 AM PDT 4.07 514 + Normal
08/30/2026 05 AM PDT 4.07 514 0 Normal
08/30/2026 06 AM PDT 4.08 521 + Normal
08/30/2026 07 AM PDT 4.07 514 - Normal
08/30/2026 08 AM PDT 4.07 514 0 Normal
08/30/2026 09 AM PDT 4.08 521 + Normal
08/30/2026 10 AM PDT 4.07 514 - Normal
08/30/2026 11 AM PDT 4.08 521 + Normal
08/30/2026 12 PM PDT 4.08 521 0 Normal
08/30/2026 01 PM PDT 4.08 521 0 Normal
08/30/2026 02 PM PDT 4.07 514 - Normal
08/30/2026 03 PM PDT 4.07 514 0 Normal
08/30/2026 04 PM PDT 4.07 514 0 Normal
08/30/2026 05 PM PDT 4.06 508 - Normal
08/30/2026 06 PM PDT 4.05 501 - Normal
08/30/2026 07 PM PDT 4.05 501 0 Normal
08/30/2026 08 PM PDT 4.05 501 0 Normal
08/30/2026 09 PM PDT 4.05 501 0 Normal
08/30/2026 10 PM PDT 4.05 501 0 Normal
08/30/2026 11 PM PDT 4.05 501 0 Normal
08/31/2026 12 AM PDT 4.06 508 + Normal
08/31/2026 01 AM PDT 4.06 508 0 Normal
08/31/2026 02 AM PDT 4.07 514 + Normal
08/31/2026 03 AM PDT 4.06 508 - Normal
08/31/2026 04 AM PDT 4.07 514 + Normal
08/31/2026 05 AM PDT 4.07 514 0 Normal
08/31/2026 06 AM PDT 4.07 514 0 Normal
08/31/2026 07 AM PDT 4.08 521 + Normal
08/31/2026 08 AM PDT 4.07 514 - Normal
08/31/2026 09 AM PDT 4.08 521 + Normal
08/31/2026 10 AM PDT 4.08 521 0 Normal
08/31/2026 11 AM PDT 4.07 514 - Normal
08/31/2026 12 PM PDT 4.07 514 0 Normal
08/31/2026 01 PM PDT 4.07 514 0 Normal
08/31/2026 02 PM PDT 4.07 514 0 Normal
08/31/2026 03 PM PDT 4.08 521 + Normal
08/31/2026 04 PM PDT 4.07 514 - Normal
08/31/2026 05 PM PDT 4.07 514 0 Normal
08/31/2026 06 PM PDT 4.06 508 - Normal
08/31/2026 07 PM PDT 4.06 508 0 Normal
08/31/2026 08 PM PDT 4.05 501 - Normal
08/31/2026 09 PM PDT 4.05 501 0 Normal
08/31/2026 10 PM PDT 4.05 501 0 Normal
08/31/2026 11 PM PDT 4.04 498 - Normal
09/01/2026 12 AM PDT 4.03 494 - Normal
09/01/2026 01 AM PDT 4.02 490 - Normal
09/01/2026 02 AM PDT 4.01 487 - Normal
09/01/2026 03 AM PDT 4.00 483 - Normal
09/01/2026 04 AM PDT 4.01 487 + Normal
09/01/2026 05 AM PDT 4.00 483 - Normal
09/01/2026 06 AM PDT 4.00 483 0 Normal
09/01/2026 07 AM PDT 4.00 483 0 Normal
09/01/2026 08 AM PDT 4.01 487 + Normal
09/01/2026 09 AM PDT 4.00 483 - Normal
09/01/2026 10 AM PDT 4.00 483 0 Normal
09/01/2026 11 AM PDT 4.01 487 + Normal
09/01/2026 12 PM PDT 4.01 487 0 Normal
09/01/2026 01 PM PDT 4.00 483 - Normal
09/01/2026 02 PM PDT 4.00 483 0 Normal
09/01/2026 03 PM PDT 3.99 479 - Normal
09/01/2026 04 PM PDT 3.99 479 0 Normal
09/01/2026 05 PM PDT 3.99 479 0 Normal
09/01/2026 06 PM PDT 3.99 479 0 Normal
09/01/2026 07 PM PDT 3.98 476 - Normal
09/01/2026 08 PM PDT 3.98 476 0 Normal
09/01/2026 09 PM PDT 3.98 476 0 Normal
09/01/2026 10 PM PDT 3.97 472 - Normal
09/01/2026 11 PM PDT 3.97 472 0 Normal
09/02/2026 12 AM PDT 3.97 472 0 Normal
09/02/2026 01 AM PDT 3.97 472 0 Normal
09/02/2026 02 AM PDT 3.98 476 + Normal
09/02/2026 03 AM PDT 3.98 476 0 Normal
09/02/2026 04 AM PDT 3.98 476 0 Normal
09/02/2026 05 AM PDT 3.98 476 0 Normal
09/02/2026 06 AM PDT 3.98 476 0 Normal
09/02/2026 07 AM PDT 3.98 476 0 Normal
#
# FORECAST
#
# Date & Time (Local) Stage (Feet) Flow (cfs) Trend Forecast Status
# ---------------------------------------------------------------------------------
09/02/2026 08 AM PDT 3.98 476 Normal
09/02/2026 09 AM PDT 3.98 476 0 Normal
09/02/2026 10 AM PDT 3.98 476 0 Normal
09/02/2026 11 AM PDT 3.98 476 0 Normal
09/02/2026 12 PM PDT 3.98 476 0 Normal
09/02/2026 01 PM PDT 3.98 476 0 Normal
09/02/2026 02 PM PDT 3.98 476 0 Normal
09/02/2026 03 PM PDT 3.98 476 0 Normal
09/02/2026 04 PM PDT 3.98 476 0 Normal
09/02/2026 05 PM PDT 3.98 476 0 Normal
09/02/2026 06 PM PDT 3.98 476 0 Normal
09/02/2026 07 PM PDT 3.98 476 0 Normal
09/02/2026 08 PM PDT 3.98 476 0 Normal
09/02/2026 09 PM PDT 3.98 476 0 Normal
09/02/2026 10 PM PDT 3.98 476 0 Normal
09/02/2026 11 PM PDT 3.98 476 0 Normal
09/03/2026 12 AM PDT 3.98 476 0 Normal
09/03/2026 01 AM PDT 3.98 476 0 Normal
09/03/2026 02 AM PDT 3.98 476 0 Normal
09/03/2026 03 AM PDT 3.98 476 0 Normal
09/03/2026 04 AM PDT 3.98 476 0 Normal
09/03/2026 05 AM PDT 3.98 476 0 Normal
09/03/2026 06 AM PDT 3.98 476 0 Normal
09/03/2026 07 AM PDT 3.98 476 0 Normal
09/03/2026 08 AM PDT 3.98 476 0 Normal
09/03/2026 09 AM PDT 3.98 476 0 Normal
09/03/2026 10 AM PDT 3.98 476 0 Normal
09/03/2026 11 AM PDT 3.98 476 0 Normal
09/03/2026 12 PM PDT 3.98 476 0 Normal
09/03/2026 01 PM PDT 3.98 476 0 Normal
09/03/2026 02 PM PDT 3.98 476 0 Normal
09/03/2026 03 PM PDT 3.98 476 0 Normal
09/03/2026 04 PM PDT 3.98 476 0 Normal
09/03/2026 05 PM PDT 3.98 476 0 Normal
09/03/2026 06 PM PDT 3.98 476 0 Normal
09/03/2026 07 PM PDT 3.98 476 0 Normal
09/03/2026 08 PM PDT 3.98 476 0 Normal
09/03/2026 09 PM PDT 3.98 476 0 Normal
09/03/2026 10 PM PDT 3.98 476 0 Normal
09/03/2026 11 PM PDT 3.98 476 0 Normal
09/04/2026 12 AM PDT 3.98 476 0 Normal
09/04/2026 01 AM PDT 3.98 476 0 Normal
09/04/2026 02 AM PDT 3.98 476 0 Normal
09/04/2026 03 AM PDT 3.98 476 0 Normal
09/04/2026 04 AM PDT 3.98 476 0 Normal
09/04/2026 05 AM PDT 3.98 476 0 Normal
09/04/2026 06 AM PDT 3.98 476 0 Normal
09/04/2026 07 AM PDT 3.98 476 0 Normal
09/04/2026 08 AM PDT 3.98 476 0 Normal
09/04/2026 09 AM PDT 3.98 476 0 Normal
09/04/2026 10 AM PDT 3.98 476 0 Normal
09/04/2026 11 AM PDT 3.98 476 0 Normal
09/04/2026 12 PM PDT 3.98 476 0 Normal
09/04/2026 01 PM PDT 3.98 476 0 Normal
09/04/2026 02 PM PDT 3.98 476 0 Normal
09/04/2026 03 PM PDT 3.98 476 0 Normal
09/04/2026 04 PM PDT 3.98 476 0 Normal
09/04/2026 05 PM PDT 3.98 476 0 Normal
09/04/2026 06 PM PDT 3.98 476 0 Normal
09/04/2026 07 PM PDT 3.98 476 0 Normal
09/04/2026 08 PM PDT 3.98 476 0 Normal
09/04/2026 09 PM PDT 3.98 476 0 Normal
09/04/2026 10 PM PDT 3.98 476 0 Normal
09/04/2026 11 PM PDT 3.98 476 0 Normal
09/05/2026 12 AM PDT 3.98 476 0 Normal
09/05/2026 01 AM PDT 3.98 476 0 Normal
09/05/2026 02 AM PDT 3.98 476 0 Normal
09/05/2026 03 AM PDT 3.98 476 0 Normal
09/05/2026 04 AM PDT 3.98 476 0 Normal
09/05/2026 05 AM PDT 3.98 476 0 Normal
09/05/2026 06 AM PDT 3.98 476 0 Normal
09/05/2026 07 AM PDT 3.98 476 0 Normal
09/05/2026 08 AM PDT 3.98 476 0 Normal
09/05/2026 09 AM PDT 3.98 476 0 Normal
09/05/2026 10 AM PDT 3.98 476 0 Normal
09/05/2026 11 AM PDT 3.98 476 0 Normal
09/05/2026 12 PM PDT 3.98 476 0 Normal
09/05/2026 01 PM PDT 3.98 476 0 Normal
09/05/2026 02 PM PDT 3.98 476 0 Normal
09/05/2026 03 PM PDT 3.98 476 0 Normal
09/05/2026 04 PM PDT 3.98 476 0 Normal
09/05/2026 05 PM PDT 3.98 476 0 Normal
09/05/2026 06 PM PDT 3.98 476 0 Normal
09/05/2026 07 PM PDT 3.98 476 0 Normal
09/05/2026 08 PM PDT 3.98 476 0 Normal
09/05/2026 09 PM PDT 3.98 476 0 Normal
09/05/2026 10 PM PDT 3.98 476 0 Normal
09/05/2026 11 PM PDT 3.98 476 0 Normal
09/06/2026 12 AM PDT 3.98 476 0 Normal
09/06/2026 01 AM PDT 3.98 476 0 Normal
09/06/2026 02 AM PDT 3.98 476 0 Normal
09/06/2026 03 AM PDT 3.98 476 0 Normal
09/06/2026 04 AM PDT 3.98 476 0 Normal
09/06/2026 05 AM PDT 3.98 476 0 Normal
09/06/2026 06 AM PDT 3.98 476 0 Normal
09/06/2026 07 AM PDT 3.98 476 0 Normal
09/06/2026 08 AM PDT 3.98 476 0 Normal
09/06/2026 09 AM PDT 3.98 476 0 Normal
09/06/2026 10 AM PDT 3.98 476 0 Normal
09/06/2026 11 AM PDT 3.98 476 0 Normal
09/06/2026 12 PM PDT 3.98 476 0 Normal
09/06/2026 01 PM PDT 3.98 476 0 Normal
09/06/2026 02 PM PDT 3.98 476 0 Normal
09/06/2026 03 PM PDT 3.98 476 0 Normal
09/06/2026 04 PM PDT 3.98 476 0 Normal
09/06/2026 05 PM PDT 3.98 476 0 Normal
09/06/2026 06 PM PDT 3.98 476 0 Normal
09/06/2026 07 PM PDT 3.98 476 0 Normal
09/06/2026 08 PM PDT 3.98 476 0 Normal
09/06/2026 09 PM PDT 3.98 476 0 Normal
09/06/2026 10 PM PDT 3.98 476 0 Normal
09/06/2026 11 PM PDT 3.98 476 0 Normal
09/07/2026 12 AM PDT 3.98 476 0 Normal
09/07/2026 01 AM PDT 3.98 476 0 Normal
09/07/2026 02 AM PDT 3.98 476 0 Normal
09/07/2026 03 AM PDT 3.98 476 0 Normal
09/07/2026 04 AM PDT 3.98 476 0 Normal
09/07/2026 05 AM PDT 3.98 476 0 Normal
#
# NOTE 1: Stages are rounded to the nearest hundredth (.01) of a foot.
# NOTE 2: Flows are rounded to the nearest (1) cfs.
# NOTE 3: Trends are determined using hourly change in unrounded stage and flow.
# NOTE 4: Maximum Values are determined using unrounded stage and flow.
|